{"data":{"norad_id":57206,"epoch":"2026-09-21T20:20:32.832672Z","epoch_age_seconds":88679,"freshness":"FRESH","line1":"1 57206U 23091AS  26264.84760223  .00280992  30742-4  98265-3 0  9990","line2":"2 57206  97.4895 352.1428 0003516 265.2618  94.8252 15.89262164180591","mean_motion":15.89262164,"eccentricity":0.0003516,"inclination_deg":97.4895,"raan_deg":352.1428,"arg_perigee_deg":265.2618,"mean_anomaly_deg":94.8252,"bstar":0.00098265,"rev_number":18059,"period_min":90.608084217879,"perigee_km":302.00078619134,"apogee_km":306.69991129497,"semimajor_km":6682.4873487432,"source":"CELESTRAK","updated_at":"2026-09-22T09:00:26.083117Z"}}